Regional Weather Roundup
Issued by NWS

Home | Current Version | Previous Version | Text Only | Print | Product List | Glossary On
Versions: 1 2 3 4 5 6 7 8 9 10 11 12 13 14 15 16 17 18 19 20 21 22 23 24 25 26 27 28 29 30 31 32 33 34 35 36 37 38 39 40 41 42 43 44 45 46 47 48 49 50
275
ASUS44 KJAN 280303
RWRMS

MISSISSIPPI HOURLY WEATHER ROUNDUP
NATIONAL WEATHER SERVICE JACKSON MS
900 PM CST TUE JAN 27 2015

NOTE: "FAIR: INDICATES FEW OR NO CLOUDS BELOW 12,000 FEET WITH NO
SIGNIFICANT WEATHER AND/OR OBSTRUCTIONS TO VISIBILITY.

MSZ001>002-007>008-010>013-018>021-025>028-034>036-280400-
NORTHWEST MISSISSIPPI

CITY           SKY/WX    TMP DP  RH WIND       PRES   REMARKS
CLARKSDALE     FAIR      43  39  87 CALM      30.21S
CLEVELAND      FAIR      45  40  84 E6        30.20R
GREENWOOD      CLEAR     41  36  82 NE3       30.20R
GREENVILLE     CLEAR     50  38  63 NE8       30.18R
GRENADA        FAIR      45  36  70 N6        30.20R
OLIVE BRANCH   CLEAR     41  36  81 NE3       30.21S
OXFORD         FAIR      43  32  65 NE7       30.22R
TUNICA         CLEAR     41  36  81 E5        30.21R
$$

MSZ003>006-009-014>017-022>024-029>033-037>039-280400-
NORTHEAST MISSISSIPPI

CITY           SKY/WX    TMP DP  RH WIND       PRES   REMARKS
COLUMBUS AFB   CLEAR     44  32  62 N8        30.18R
CORINTH        FAIR      41  32  70 N5        30.20S
GOLDN TRIANGLE CLEAR     43  32  65 N9        30.17R
STARKVILLE     FAIR      45  34  65 CALM      30.18R
TUPELO         CLEAR     40  31  70 NE7       30.21R
$$

MSZ040-058-280400-
CENTRAL MISSISSIPPI

CITY           SKY/WX    TMP DP  RH WIND       PRES   REMARKS
JACKSON INTL   CLEAR     47  37  68 N3        30.18R
JACKSON HAWKNS CLEAR     52  38  58 N3        30.18R
MERIDIAN KEY   CLEAR     43  34  70 NW3       30.16R
MERIDIAN NAS   CLEAR     46  34  62 NW5       30.16R
RAYMOND        FAIR      45  39  81 MISG      30.18R
VICKSBURG      CLEAR     46  39  76 NE5       30.18R
$$

MSZ059>079-280400-
SOUTH MISSISSIPPI

CITY           SKY/WX    TMP DP  RH WIND       PRES   REMARKS
BROOKHAVEN     FAIR      48  36  61 CALM      30.18R
HATTIESBURG    CLEAR     45  38  76 CALM      30.16R
MCCOMB         CLEAR     57  34  41 N8        30.16R
NATCHEZ        CLEAR     50  37  62 CALM      30.17R
PINE BELT      CLEAR     54  30  40 N13       30.16R
$$

MSZ080>082-280400-
COASTAL MISSISSIPPI

CITY           SKY/WX    TMP DP  RH WIND       PRES   REMARKS
BILOXI         CLEAR     54  43  67 CALM      30.12R
PASCAGOULA     CLEAR     44  42  93 CALM      30.13R
GULFPORT       CLEAR     49  41  74 CALM      30.13R
$$



USA.gov is the U.S. government's official web portal to all federal, state and local government web resources and services.